Location: Newark
(35.6799°N, 139.7636°E)
Time: 20:55:09
(UTC+00:00)

ISS - Visible Passes

Search period start: 18 November 2019 00:00
Search period end: 28 November 2019 00:00
Orbit: 412 x 421 km, 51.6° (Epoch: 19 November)

Date Brightness Start Highest point End Pass type
(mag) Time Alt. Az. Time Alt. Az. Time Alt. Az.
18 Nov -0.7 09:43:14 10° SSW 09:43:18 10° SSW 09:43:18 10° SSW visible
19 Nov -2.0 08:55:34 10° S 08:57:30 20° SSE 08:57:30 20° SSE visible
20 Nov -1.5 08:08:52 10° SE 08:09:58 11° SE 08:11:04 10° ESE visible
20 Nov -1.4 09:43:01 10° WSW 09:44:32 24° WSW 09:44:32 24° WSW visible
21 Nov -3.9 08:54:38 10° SW 08:57:57 73° SE 08:58:31 55° ENE visible
22 Nov -2.9 08:06:32 10° SSW 08:09:38 36° SE 08:12:25 12° ENE visible
22 Nov -1.2 09:43:46 10° W 09:45:21 19° WNW 09:45:21 19° WNW visible
23 Nov -2.5 08:54:49 10° WSW 08:57:55 35° NW 08:59:09 26° N visible
24 Nov -3.4 08:06:08 10° WSW 08:09:27 63° NW 08:12:48 10° NE visible
24 Nov -0.6 09:45:39 10° NW 09:45:46 10° NW 09:45:46 10° NW visible
25 Nov -1.4 08:55:57 10° WNW 08:58:05 16° NNW 08:59:24 13° N visible
26 Nov -1.8 08:06:44 10° W 08:09:28 23° NNW 08:12:15 10° NNE visible
